Location: Edinburgh
(55.9500°N, 3.1600°W)
Time: 10:22:25
(UTC+01:00)

AO-91 - Pass Details

Date: 28 May 2024
Orbit: 442 x 732 km, 97.6° (Epoch: 16 June)

Event Time Altitude Azimuth Distance (km) Brightness Sun altitude
Rises 00:17:57 0° 8° (N) 2,866 ? -11.8°
Reaches altitude 10° 00:20:18 10° 356° (N) 2,008 ? -11.8°
Maximum altitude 00:24:00 27° 299° (WNW) 1,253 ? -11.9°
Drops below altitude 10° 00:27:56 10° 242° (WSW) 2,136 ? -12.0°
Sets 00:30:31 0° 231° (SW) 3,086 ? -12.1°
